Location: Baix
(44.7118°N, 4.7648°E)
Time: 12:35:22
(UTC+00:00)

Vanguard 2 Rocket - Pass Details

Date: 28 November 2020
Orbit: 554 x 3325 km, 32.9° (Epoch: 23 January)

Event Time Altitude Azimuth Distance (km) Brightness Sun altitude
Rises 09:31:35 0° 253° (WSW) 7,305 11.4 18.6°
Reaches altitude 10° 09:36:44 10° 249° (WSW) 6,267 11.1 19.1°
Maximum altitude 09:55:22 54° 180° (S) 3,162 10.6 20.5°
Drops below altitude 10° 10:07:57 10° 108° (ESE) 4,386 11.0 21.3°
Sets 10:10:51 0° 104° (ESE) 5,066 11.2 21.5°
